Location: S�tio Afonso Gruber
(26.1760°S, 49.5250°W)
Time: 00:14:14
(UTC+00:00)

Cosmos 2016 Rocket - Pass Details

Date: 01 October 2020
Orbit: 946 x 1001 km, 83.0° (Epoch: 27 October)

Event Time Altitude Azimuth Distance (km) Brightness Sun altitude
Rises 07:08:11 0° 14° (NNE) 3,622 7.0 -24.8°
Reaches altitude 10° 07:10:46 10° 20° (NNE) 2,691 6.3 -24.3°
Maximum altitude 07:16:33 44° 90° (E) 1,326 5.1 -23.0°
Drops below altitude 10° 07:22:28 10° 159° (SSE) 2,755 6.8 -21.8°
Sets 07:25:08 0° 165° (SSE) 3,718 7.4 -21.2°
